period_start,C,m1,H,J0,J1,J2,J3,J4,J5,JA,JB,JC,JD,JJ,JK,JN,#
2014-11-17 00:03:45,0.11,3.12,0.00,19.21,23.45,26.38,4.88,26.48,1027.17,2046.99,2355.62,2561.07,2741.99,350.04,356.06,27.66,0000 0000 0000 0000 000000
2014-11-17 00:08:46,0.11,3.12,0.00,19.21,23.45,26.36,4.86,26.66,1026.90,2046.99,2354.73,2560.56,2741.24,350.09,355.88,27.69,0000 0000 0000 0000 000000
2014-11-17 00:13:48,0.10,3.12,0.00,19.22,23.45,26.40,4.93,26.58,1026.74,2046.99,2353.75,2559.90,2740.57,349.73,355.41,27.72,0000 0000 0000 0000 000000
2014-11-17 00:18:49,0.10,3.13,0.00,19.27,23.45,26.33,4.90,26.44,1026.86,2046.99,2352.90,2559.09,2739.85,350.09,355.68,27.75,0000 0000 0000 0000 000000
2014-11-17 00:23:50,0.07,3.13,0.00,19.28,23.47,26.36,4.92,26.61,1026.87,2046.99,2352.03,2558.91,2739.05,350.23,355.94,27.77,0000 0000 0000 0000 000000
2014-11-17 00:28:52,0.12,3.13,0.00,19.29,23.47,26.32,4.90,26.57,1026.92,2046.99,2351.18,2558.10,2738.41,350.24,355.93,27.80,0000 0000 0000 0000 000000
2014-11-17 00:33:53,0.13,3.14,0.00,19.30,23.47,26.35,4.87,26.58,1027.33,2046.99,2350.17,2557.47,2737.67,349.86,355.62,27.83,0000 0000 0000 0000 000000
2014-11-17 00:38:54,0.10,3.14,0.00,19.32,23.47,26.28,4.86,26.96,1027.36,2046.98,2349.09,2556.74,2736.82,349.89,355.70,27.86,0000 0000 0000 0000 000000
2014-11-17 00:43:56,0.10,3.14,0.00,19.31,23.49,26.31,4.88,26.70,1027.36,2046.97,2348.28,2556.04,2736.04,350.04,355.88,27.89,0000 0000 0000 0000 000000
2014-11-17 00:48:57,0.13,3.15,0.00,19.32,23.50,26.26,4.82,26.63,1027.36,2046.99,2347.40,2555.51,2735.33,349.36,355.16,27.92,0000 0000 0000 0000 000000
2014-11-17 00:53:58,0.07,3.15,0.00,19.32,23.51,26.32,4.87,26.79,1027.35,2046.99,2346.58,2554.95,2734.79,349.58,355.19,27.95,0000 0000 0000 0000 000000
2014-11-17 00:58:59,0.12,3.15,0.00,19.36,23.52,26.33,4.87,26.62,1027.33,2046.98,2345.66,2554.14,2734.01,349.84,355.24,27.98,0000 0000 0000 0000 000000
2014-11-17 01:04:00,0.13,3.16,0.00,19.34,23.53,26.30,4.90,26.69,1027.32,2046.98,2344.71,2553.56,2733.19,349.89,355.52,28.01,0000 0000 0000 0000 000000
2014-11-17 01:09:01,0.08,3.16,0.00,19.34,23.55,26.30,4.91,26.61,1027.24,2046.98,2343.85,2552.94,2732.59,350.25,355.97,28.04,0000 0000 0000 0000 000000
2014-11-17 01:14:03,0.11,3.16,0.00,19.35,23.55,26.33,4.94,26.82,1027.18,2046.98,2342.95,2552.12,2731.88,350.30,355.92,28.07,0000 0000 0000 0000 000000
2014-11-17 01:19:04,0.11,3.17,0.00,19.35,23.56,26.35,4.89,26.74,1026.95,2046.92,2342.01,2551.53,2731.04,349.77,355.41,28.10,0000 0000 0000 0000 000000
2014-11-17 01:24:05,0.11,3.17,0.00,19.35,23.57,26.43,4.82,26.77,1026.91,2046.93,2341.07,2550.92,2730.21,349.36,355.02,28.13,0000 0000 0000 0000 000000
2014-11-17 01:29:06,0.11,3.17,0.00,19.39,23.58,26.45,4.86,26.72,1026.96,2046.88,2340.16,2550.10,2729.63,349.71,355.33,28.16,0000 0000 0000 0000 000000
2014-11-17 01:34:08,0.11,3.18,0.00,19.38,23.59,26.43,4.92,26.69,1027.31,2046.92,2339.27,2549.65,2728.97,350.09,355.77,28.18,0000 0000 0000 0000 000000
2014-11-17 01:39:09,0.03,3.18,0.00,19.38,23.60,26.43,4.87,26.85,1027.36,2046.65,2338.33,2548.95,2728.14,349.68,355.30,28.21,0000 0000 0000 0000 000000
2014-11-17 01:44:10,0.14,3.18,0.00,19.40,23.60,26.47,4.90,26.75,1027.36,2046.62,2337.44,2548.15,2727.49,350.21,355.98,28.24,0000 0000 0000 0000 000000
2014-11-17 01:49:11,0.10,3.18,0.00,19.37,23.62,26.49,4.85,26.68,1027.30,2046.59,2336.58,2547.67,2726.87,350.03,355.87,28.27,0000 0000 0000 0000 000000
2014-11-17 01:54:13,0.03,3.19,0.00,19.38,23.62,26.53,4.87,26.66,1026.94,2046.30,2335.70,2547.01,2726.06,350.03,355.58,28.30,0000 0000 0000 0000 000000
2014-11-17 01:59:14,0.14,3.19,0.00,19.39,23.63,26.55,4.84,26.62,1026.88,2046.26,2334.71,2546.25,2725.34,349.88,355.52,28.33,0000 0000 0000 0000 000000
2014-11-17 02:04:15,0.11,3.19,0.00,19.38,23.64,26.57,4.92,26.75,1026.87,2046.29,2333.74,2545.68,2724.71,350.39,355.84,28.36,0000 0000 0000 0000 000000
2014-11-17 02:09:16,0.05,3.19,0.00,19.39,23.65,26.56,4.86,26.82,1026.87,2046.16,2332.88,2545.00,2723.96,349.73,355.17,28.39,0000 0000 0000 0000 000000
2014-11-17 02:14:17,0.13,3.20,0.00,19.37,23.65,26.59,4.96,26.81,1026.86,2046.07,2332.03,2544.25,2723.12,350.46,355.85,28.42,0000 0000 0000 0000 000000
2014-11-17 02:19:18,0.08,3.20,0.00,19.39,23.65,26.62,4.96,26.71,1026.87,2046.06,2331.17,2543.86,2722.53,350.91,356.26,28.45,0000 0000 0000 0000 000000
2014-11-17 02:24:20,0.10,3.20,0.00,19.40,23.67,26.62,4.93,26.61,1026.87,2046.02,2330.31,2543.06,2721.90,350.02,355.53,28.48,0000 0000 0000 0000 000000
2014-11-17 02:29:21,0.13,3.21,0.00,19.37,23.67,26.64,4.89,26.71,1026.88,2046.09,2329.57,2542.60,2721.07,349.52,355.28,28.51,0000 0000 0000 0000 000000
2014-11-17 02:34:22,0.08,3.21,0.00,19.37,23.67,26.66,4.90,26.57,1026.97,2046.09,2328.75,2541.98,2720.46,350.22,355.85,28.54,0000 0000 0000 0000 000000
2014-11-17 02:39:23,0.13,3.21,0.00,19.41,23.67,26.65,4.90,26.77,1027.09,2046.03,2327.73,2541.18,2719.65,349.89,355.46,28.57,0000 0000 0000 0000 000000
2014-11-17 02:44:24,0.08,3.22,0.00,19.39,23.67,26.62,4.95,26.60,1027.28,2046.01,2326.99,2540.64,2719.00,350.32,355.86,28.59,0000 0000 0000 0000 000000
2014-11-17 02:49:26,0.10,3.22,0.00,19.40,23.68,26.66,4.92,26.63,1026.93,2046.02,2326.13,2540.02,2718.26,349.98,355.56,28.62,0000 0000 0000 0000 000000
2014-11-17 02:54:27,0.12,3.22,0.00,19.43,23.69,26.64,4.89,26.53,1026.93,2046.02,2325.18,2539.34,2717.69,349.93,355.43,28.65,0000 0000 0000 0000 000000
2014-11-17 02:59:28,0.09,3.23,0.00,19.46,23.70,26.61,4.87,26.46,1027.31,2046.00,2324.23,2538.74,2717.01,349.73,355.22,28.68,0000 0000 0000 0000 000000
2014-11-17 03:04:29,0.11,3.23,0.00,19.46,23.70,26.59,4.89,26.74,1027.36,2046.02,2323.52,2538.04,2716.18,349.95,355.54,28.71,0000 0000 0000 0000 000000
2014-11-17 03:09:30,0.13,3.23,0.00,19.47,23.70,26.63,4.88,26.59,1027.38,2046.01,2322.49,2537.46,2715.67,349.77,355.27,28.74,0000 0000 0000 0000 000000
2014-11-17 03:14:32,0.06,3.23,0.00,19.49,23.70,26.58,4.91,26.48,1027.36,2046.01,2321.63,2536.96,2714.98,350.19,355.62,28.77,0000 0000 0000 0000 000000
2014-11-17 03:19:33,0.12,3.24,0.00,19.53,23.72,26.61,4.87,26.47,1027.32,2046.00,2320.85,2536.16,2714.17,349.79,355.43,28.80,0000 0000 0000 0000 000000
2014-11-17 03:24:34,0.11,3.24,0.00,19.52,23.72,26.59,4.90,26.56,1027.36,2046.00,2319.94,2535.71,2713.51,349.75,355.27,28.83,0000 0000 0000 0000 000000
2014-11-17 03:29:35,0.08,3.24,0.00,19.55,23.72,26.57,4.89,26.55,1027.36,2046.00,2319.04,2535.01,2712.87,349.90,355.50,28.86,0000 0000 0000 0000 000000
2014-11-17 03:34:36,0.13,3.25,0.00,19.58,23.74,26.51,4.89,26.42,1027.31,2046.00,2318.14,2534.25,2712.07,350.24,355.82,28.89,0000 0000 0000 0000 000000
2014-11-17 03:39:37,0.10,3.25,0.00,19.59,23.75,26.56,4.86,26.68,1027.35,2046.00,2317.22,2533.78,2711.37,349.79,355.07,28.92,0000 0000 0000 0000 000000
2014-11-17 03:44:39,0.09,3.25,0.00,19.62,23.75,26.52,4.85,26.43,1027.36,2045.99,2316.52,2533.05,2710.83,349.62,354.87,28.95,0000 0000 0000 0000 000000
2014-11-17 03:49:40,0.11,3.26,0.00,19.66,23.77,26.51,4.72,26.42,1027.36,2045.99,2315.68,2532.57,2710.03,349.11,354.50,28.98,0000 0000 0000 0000 000000
2014-11-17 03:54:41,0.07,3.26,0.00,19.68,23.77,26.51,4.87,26.58,1027.36,2045.98,2314.79,2531.95,2709.25,350.05,355.47,29.00,0000 0000 0000 0000 000000
2014-11-17 03:59:42,0.12,3.26,0.00,19.67,23.79,26.54,4.87,26.55,1027.36,2045.98,2313.93,2531.15,2708.74,349.70,355.05,29.03,0000 0000 0000 0000 000000
2014-11-17 04:04:43,0.09,3.27,0.00,19.69,23.80,26.58,4.89,26.56,1027.36,2045.96,2313.06,2530.74,2708.00,349.94,355.35,29.06,0000 0000 0000 0000 000000
2014-11-17 04:09:44,0.11,3.27,0.00,19.71,23.82,26.55,4.96,26.53,1027.36,2045.95,2312.17,2530.02,2707.20,350.26,355.67,29.09,0000 0000 0000 0000 000000
2014-11-17 04:14:45,0.12,3.27,0.00,19.73,23.82,26.59,4.84,26.68,1027.36,2045.90,2311.36,2529.37,2706.59,349.93,354.88,29.12,0000 0000 0000 0000 000000
2014-11-17 04:19:46,0.04,3.27,0.00,19.74,23.84,26.54,4.82,26.58,1027.36,2045.79,2310.55,2528.96,2705.98,349.82,355.28,29.15,0000 0000 0000 0000 000000
2014-11-17 04:24:47,0.07,3.28,0.00,19.77,23.85,26.54,4.85,26.61,1027.36,2045.57,2309.67,2528.15,2705.17,349.34,354.41,29.18,0000 0000 0000 0000 000000
2014-11-17 04:29:49,0.03,3.28,0.00,19.78,23.87,26.56,4.85,26.48,1027.33,2045.35,2308.96,2527.88,2704.55,349.81,355.03,29.21,0000 0000 0000 0000 000000
2014-11-17 04:34:50,0.08,3.28,0.00,19.82,23.88,26.62,4.88,26.52,1027.34,2045.19,2308.11,2527.10,2703.97,349.46,354.62,29.24,0000 0000 0000 0000 000000
2014-11-17 04:39:51,0.11,3.28,0.00,19.84,23.90,26.62,4.89,26.73,1027.32,2045.07,2307.20,2526.36,2703.15,349.88,354.72,29.27,0000 0000 0000 0000 000000
2014-11-17 04:44:53,0.10,3.29,0.00,19.86,23.91,26.63,4.84,26.43,1027.15,2045.02,2306.33,2525.87,2702.46,349.72,354.83,29.30,0000 0000 0000 0000 000000
2014-11-17 04:49:54,0.11,3.29,0.00,19.87,23.93,26.62,4.92,26.51,1026.94,2045.01,2305.41,2525.11,2701.86,350.35,355.32,29.33,0000 0000 0000 0000 000000
2014-11-17 04:54:55,0.12,3.29,0.00,19.87,23.95,26.63,4.78,26.55,1027.14,2045.00,2304.56,2524.51,2701.05,349.48,354.77,29.36,0000 0000 0000 0000 000000
2014-11-17 04:59:56,0.07,3.30,0.00,19.89,23.96,26.65,4.93,26.67,1027.22,2045.00,2303.78,2523.99,2700.32,349.95,354.91,29.39,0000 0000 0000 0000 000000
2014-11-17 05:04:57,0.12,3.30,0.00,19.90,23.97,26.67,4.85,26.63,1027.16,2045.00,2302.84,2523.29,2699.79,349.84,354.85,29.41,0000 0000 0000 0000 000000
2014-11-17 05:09:59,0.08,3.30,0.00,19.93,23.99,26.66,4.90,26.60,1027.31,2044.99,2302.04,2522.78,2699.03,350.14,355.05,29.44,0000 0000 0000 0000 000000
2014-11-17 05:15:00,0.12,3.30,0.00,19.94,24.00,26.71,4.82,26.57,1027.29,2044.98,2301.26,2522.03,2698.26,349.35,354.35,29.47,0000 0000 0000 0000 000000
2014-11-17 05:20:01,0.12,3.31,0.00,19.95,24.02,26.73,4.89,26.58,1027.03,2044.97,2300.14,2521.45,2697.68,350.31,355.31,29.50,0000 0000 0000 0000 000000
2014-11-17 05:25:02,0.07,3.31,0.00,19.97,24.04,26.71,4.86,26.63,1026.88,2044.98,2299.30,2520.96,2696.99,349.69,354.52,29.53,0000 0000 0000 0000 000000
2014-11-17 05:30:04,0.13,3.31,0.00,19.98,24.05,26.73,4.83,26.53,1026.88,2044.96,2298.51,2520.18,2696.21,349.72,354.56,29.56,0000 0000 0000 0000 000000
2014-11-17 05:35:05,0.07,3.32,0.00,20.00,24.07,26.77,4.85,26.51,1026.89,2044.83,2297.60,2519.79,2695.57,349.24,354.08,29.59,0000 0000 0000 0000 000000
2014-11-17 05:40:06,-0.03,3.32,0.00,20.02,24.08,26.80,4.88,26.65,1026.91,2044.34,2296.77,2519.04,2694.91,350.25,354.82,29.62,0000 0000 0000 0000 000000
2014-11-17 05:45:07,0.14,3.32,0.00,20.04,24.10,26.81,4.94,26.63,1026.88,2044.23,2295.95,2518.42,2694.10,350.78,355.45,29.65,0000 0000 0000 0000 000000
2014-11-17 05:50:09,0.05,3.32,0.00,20.04,24.12,26.80,4.89,26.56,1026.89,2044.16,2295.09,2518.00,2693.63,350.21,354.82,29.68,0000 0000 0000 0000 000000
2014-11-17 05:55:10,0.10,3.32,0.00,20.05,24.13,26.82,4.84,26.50,1026.89,2044.11,2294.31,2517.44,2693.01,349.42,354.24,29.71,0000 0000 0000 0000 000000
2014-11-17 06:00:11,0.09,3.33,0.00,20.08,24.15,26.87,5.00,26.61,1026.87,2044.05,2293.44,2516.89,2692.26,350.75,355.45,29.74,0000 0000 0000 0000 000000
2014-11-17 06:05:13,0.11,3.33,0.00,20.08,24.16,26.89,4.94,26.57,1026.89,2044.01,2292.57,2516.07,2691.61,350.54,355.24,29.77,0000 0000 0000 0000 000000
2014-11-17 06:10:14,0.08,3.33,0.00,20.07,24.17,26.88,4.83,26.63,1026.90,2044.00,2291.77,2515.67,2690.97,349.34,354.13,29.80,0000 0000 0000 0000 000000
2014-11-17 06:15:15,0.09,3.34,0.00,20.08,24.20,26.89,4.92,26.53,1026.90,2044.00,2290.94,2515.01,2690.13,350.07,354.45,29.82,0000 0000 0000 0000 000000
2014-11-17 06:20:16,0.13,3.34,0.00,20.09,24.21,26.93,4.86,26.53,1026.88,2044.00,2290.09,2514.29,2689.45,350.00,354.40,29.85,0000 0000 0000 0000 000000
2014-11-17 06:25:17,0.05,3.34,0.00,20.12,24.22,26.92,4.91,26.72,1026.87,2043.99,2289.38,2513.94,2688.94,350.22,354.71,29.88,0000 0000 0000 0000 000000
2014-11-17 06:30:19,0.13,3.35,0.00,20.12,24.24,26.92,4.88,26.51,1026.87,2043.98,2288.55,2513.14,2688.11,350.18,354.63,29.91,0000 0000 0000 0000 000000
2014-11-17 06:35:19,0.10,3.35,0.00,20.14,24.25,26.99,4.86,26.52,1026.87,2043.98,2287.76,2512.71,2687.51,350.12,354.69,29.94,0000 0000 0000 0000 000000
2014-11-17 06:40:20,0.09,3.35,0.00,20.16,24.27,26.99,4.86,26.52,1026.88,2043.97,2286.64,2512.02,2686.98,349.84,354.25,29.97,0000 0000 0000 0000 000000
2014-11-17 06:45:22,0.10,3.35,0.00,20.17,24.28,27.07,4.92,26.48,1026.88,2043.92,2285.83,2511.40,2686.23,350.78,355.38,30.00,0000 0000 0000 0000 000000
2014-11-17 06:50:23,0.06,3.36,0.00,20.19,24.30,27.03,4.84,26.52,1026.88,2043.82,2285.07,2510.90,2685.64,349.86,354.64,30.03,0000 0000 0000 0000 000000
2014-11-17 06:55:25,-0.01,3.36,0.00,20.21,24.31,27.06,4.86,26.51,1026.87,2043.25,2284.23,2510.10,2684.91,349.89,354.46,30.06,0000 0000 0000 0000 000000
2014-11-17 07:00:25,0.12,3.36,0.00,20.22,24.32,27.05,4.87,26.48,1026.87,2043.06,2283.28,2509.56,2684.11,349.53,354.30,30.09,0000 0000 0000 0000 000000
2014-11-17 07:05:27,0.08,3.36,0.00,20.22,24.34,27.06,4.86,26.54,1026.87,2043.03,2282.59,2509.01,2683.51,349.79,354.40,30.12,0000 0000 0000 0000 000000
2014-11-17 07:10:28,0.11,3.37,0.00,20.22,24.35,27.05,4.87,26.55,1026.87,2043.01,2281.64,2508.33,2682.92,350.19,354.43,30.15,0000 0000 0000 0000 000000
2014-11-17 07:15:30,0.06,3.37,0.00,20.27,24.37,27.09,4.89,26.51,1026.87,2043.02,2280.85,2507.94,2682.13,349.74,354.18,30.18,0000 0000 0000 0000 000000
2014-11-17 07:20:31,0.13,3.37,0.00,20.29,24.38,27.09,4.84,26.53,1026.84,2043.00,2280.04,2507.11,2681.54,349.63,354.21,30.21,0000 0000 0000 0000 000000
2014-11-17 07:25:32,0.07,3.37,0.00,20.26,24.40,27.12,4.84,26.43,1026.63,2043.00,2279.32,2506.79,2680.97,349.74,354.14,30.24,0000 0000 0000 0000 000000
2014-11-17 07:30:33,0.12,3.38,0.00,20.29,24.41,27.11,4.92,26.61,1026.45,2043.00,2278.37,2506.06,2680.19,349.97,354.25,30.26,0000 0000 0000 0000 000000
2014-11-17 07:35:34,0.10,3.38,0.00,20.28,24.42,27.16,4.89,26.52,1026.39,2043.00,2277.55,2505.61,2679.75,350.23,354.44,30.29,0000 0000 0000 0000 000000
2014-11-17 07:40:35,0.06,3.38,0.00,20.32,24.43,27.17,4.88,26.67,1026.40,2042.99,2276.97,2505.01,2679.01,349.96,354.12,30.32,0000 0000 0000 0000 000000
2014-11-17 07:45:36,0.13,3.39,0.00,20.31,24.45,27.21,4.87,26.50,1026.40,2042.98,2276.22,2504.50,2678.19,349.92,354.41,30.35,0000 0000 0000 0000 000000
2014-11-17 07:50:38,0.06,3.39,0.00,20.32,24.46,27.25,4.83,26.63,1026.38,2042.94,2275.33,2504.00,2677.81,349.69,353.81,30.38,0000 0000 0000 0000 000000
2014-11-17 07:55:39,0.12,3.39,0.00,20.32,24.47,27.20,4.83,26.50,1026.39,2042.97,2274.59,2503.39,2677.04,349.83,353.96,30.41,0000 0000 0000 0000 000000
2014-11-17 08:00:40,0.07,3.39,0.00,20.33,24.49,27.24,4.87,26.49,1026.40,2042.94,2273.70,2502.92,2676.51,350.51,354.89,30.44,0000 0000 0000 0000 000000
2014-11-17 08:05:42,0.09,3.40,0.00,20.36,24.50,27.24,4.89,26.50,1026.38,2042.91,2272.84,2502.13,2675.94,350.12,354.22,30.47,0000 0000 0000 0000 000000
2014-11-17 08:10:43,0.06,3.40,0.00,20.38,24.51,27.26,4.87,26.60,1026.38,2042.81,2271.97,2501.79,2675.11,350.15,354.32,30.50,0000 0000 0000 0000 000000
2014-11-17 08:15:44,0.06,3.40,0.00,20.38,24.52,27.29,4.86,26.54,1026.27,2042.45,2271.06,2501.04,2674.55,349.83,354.01,30.53,0000 0000 0000 0000 000000
2014-11-17 08:20:45,0.05,3.40,0.00,20.38,24.53,27.29,4.82,26.56,1026.21,2042.19,2270.10,2500.63,2673.96,349.40,353.53,30.56,0000 0000 0000 0000 000000
2014-11-17 08:25:46,0.08,3.41,0.00,20.38,24.55,27.30,4.90,26.58,1026.33,2042.08,2269.36,2500.02,2673.14,350.26,354.21,30.59,0000 0000 0000 0000 000000
2014-11-17 08:30:47,0.11,3.41,0.00,20.39,24.56,27.31,4.88,26.68,1026.28,2042.07,2268.60,2499.50,2672.78,349.94,354.04,30.62,0000 0000 0000 0000 000000
2014-11-17 08:35:48,0.04,3.41,0.00,20.42,24.57,27.37,4.78,26.54,1026.36,2042.03,2267.92,2499.00,2672.03,349.23,353.37,30.64,0000 0000 0000 0000 000000
2014-11-17 08:40:50,0.14,3.41,0.00,20.42,24.58,27.34,4.85,26.64,1026.38,2042.01,2267.06,2498.28,2671.36,350.11,354.11,30.67,0000 0000 0000 0000 000000
2014-11-17 08:45:51,0.05,3.42,0.00,20.44,24.60,27.34,4.89,26.53,1026.37,2042.01,2266.22,2497.99,2670.94,350.15,354.22,30.70,0000 0000 0000 0000 000000
2014-11-17 08:50:52,0.13,3.42,0.00,20.43,24.60,27.33,4.87,26.55,1026.35,2042.02,2265.42,2497.24,2670.14,350.53,354.34,30.73,0000 0000 0000 0000 000000
2014-11-17 08:55:53,0.06,3.42,0.00,20.44,24.62,27.37,4.80,26.48,1026.37,2042.00,2264.71,2496.92,2669.65,349.80,353.80,30.76,0000 0000 0000 0000 000000
2014-11-17 09:00:55,0.10,3.43,0.00,20.45,24.62,27.38,4.81,26.53,1026.32,2042.00,2263.92,2496.17,2669.02,349.81,354.03,30.79,0000 0000 0000 0000 000000
2014-11-17 09:05:56,0.08,3.43,0.00,20.48,24.64,27.38,4.82,26.42,1026.08,2042.00,2263.08,2495.97,2668.31,349.68,353.62,30.82,0000 0000 0000 0000 000000
2014-11-17 09:10:58,0.11,3.43,0.00,20.48,24.65,27.43,4.84,26.52,1025.99,2042.00,2262.56,2495.26,2667.83,349.95,353.96,30.85,0000 0000 0000 0000 000000
2014-11-17 09:15:59,0.07,3.43,0.00,20.48,24.67,27.47,4.84,26.56,1025.92,2041.99,2261.64,2494.96,2667.07,349.68,353.35,30.88,0000 0000 0000 0000 000000
2014-11-17 09:21:01,0.11,3.44,0.00,20.49,24.67,27.47,4.84,26.52,1025.90,2041.98,2261.01,2494.21,2666.38,350.07,353.88,30.91,0000 0000 0000 0000 000000
2014-11-17 09:26:02,0.04,3.44,0.00,20.49,24.69,27.45,4.87,26.58,1025.90,2041.99,2260.60,2493.98,2665.92,350.06,353.73,30.94,0000 0000 0000 0000 000000
2014-11-17 09:31:03,0.13,3.44,0.00,20.49,24.70,27.50,4.91,26.58,1025.90,2041.92,2259.61,2493.19,2665.10,350.00,353.92,30.97,0000 0000 0000 0000 000000
2014-11-17 09:36:04,0.04,3.44,0.00,20.49,24.71,27.55,4.87,26.57,1025.90,2041.74,2258.79,2492.78,2664.59,349.48,353.30,31.00,0000 0000 0000 0000 000000
2014-11-17 09:41:05,0.00,3.44,0.00,20.52,24.72,27.51,4.88,26.73,1025.90,2041.26,2257.90,2492.04,2663.97,350.04,353.85,31.03,0000 0000 0000 0000 000000
2014-11-17 09:46:07,0.11,3.45,0.00,20.51,24.72,27.51,4.98,26.53,1025.90,2041.19,2257.06,2491.62,2663.18,350.23,353.93,31.05,0000 0000 0000 0000 000000
2014-11-17 09:51:08,0.07,3.45,0.00,20.50,24.73,27.51,4.82,26.55,1025.90,2041.04,2256.19,2491.02,2662.68,349.76,353.51,31.08,0000 0000 0000 0000 000000
2014-11-17 09:56:09,0.10,3.45,0.00,20.53,24.75,27.56,4.84,26.49,1025.88,2041.04,2255.59,2490.64,2662.02,350.13,353.95,31.11,0000 0000 0000 0000 000000
2014-11-17 10:01:11,0.07,3.45,0.00,20.53,24.75,27.53,4.90,26.52,1025.78,2041.02,2254.89,2490.02,2661.51,350.12,353.72,31.14,0000 0000 0000 0000 000000
2014-11-17 10:06:12,0.08,3.46,0.00,20.53,24.75,27.55,4.89,26.59,1025.62,2041.04,2254.05,2489.70,2661.00,350.16,353.73,31.17,0000 0000 0000 0000 000000
2014-11-17 10:11:13,0.10,3.46,0.00,20.52,24.77,27.61,4.83,26.51,1025.62,2041.01,2253.24,2489.03,2660.31,349.70,353.24,31.20,0000 0000 0000 0000 000000
2014-11-17 10:16:15,0.09,3.46,0.00,20.52,24.77,27.58,4.87,26.46,1025.69,2041.02,2252.49,2488.69,2659.91,350.18,353.89,31.23,0000 0000 0000 0000 000000
2014-11-17 10:21:16,0.10,3.46,0.00,20.53,24.77,27.64,4.92,26.55,1025.64,2041.01,2251.62,2488.02,2659.10,350.23,353.45,31.26,0000 0000 0000 0000 000000
2014-11-17 10:26:17,0.08,3.47,0.00,20.51,24.78,27.65,4.92,26.52,1025.53,2041.01,2250.81,2487.61,2658.71,350.85,354.53,31.29,0000 0000 0000 0000 000000
2014-11-17 10:31:18,0.08,3.47,0.00,20.51,24.80,27.67,4.79,26.56,1025.45,2041.00,2250.05,2487.03,2658.03,349.23,352.97,31.32,0000 0000 0000 0000 000000
2014-11-17 10:36:20,0.11,3.47,0.00,20.55,24.80,27.71,4.88,26.50,1025.41,2041.00,2249.43,2486.70,2657.44,350.23,353.80,31.35,0000 0000 0000 0000 000000
2014-11-17 10:41:21,0.07,3.48,0.00,20.55,24.80,27.69,4.89,26.62,1025.41,2041.00,2248.66,2486.03,2656.99,349.93,353.73,31.38,0000 0000 0000 0000 000000
2014-11-17 10:46:22,0.09,3.48,0.00,20.55,24.80,27.68,4.79,26.54,1025.41,2041.00,2247.98,2485.74,2656.20,350.00,353.61,31.41,0000 0000 0000 0000 000000
2014-11-17 10:51:24,0.07,3.48,0.00,20.53,24.82,27.69,4.82,26.52,1025.36,2041.00,2247.23,2485.06,2655.97,349.61,353.25,31.44,0000 0000 0000 0000 000000
2014-11-17 10:56:25,0.08,3.48,0.00,20.52,24.82,27.72,4.87,26.49,1025.16,2041.00,2246.70,2484.88,2655.16,349.91,353.56,31.47,0000 0000 0000 0000 000000
2014-11-17 11:01:26,0.11,3.49,0.00,20.52,24.82,27.75,4.85,26.50,1024.98,2041.00,2245.78,2484.10,2654.74,349.71,353.27,31.49,0000 0000 0000 0000 000000
2014-11-17 11:06:27,0.06,3.49,0.00,20.54,24.82,27.77,4.84,26.52,1024.93,2041.00,2244.91,2483.84,2654.03,349.64,352.98,31.52,0000 0000 0000 0000 000000
2014-11-17 11:11:29,0.11,3.49,0.00,20.53,24.83,27.81,4.89,26.59,1024.94,2040.99,2244.08,2483.10,2653.69,350.31,353.38,31.55,0000 0000 0000 0000 000000
2014-11-17 11:16:30,0.07,3.49,0.00,20.54,24.85,27.76,4.84,26.56,1024.94,2040.98,2243.22,2482.93,2653.01,350.03,353.36,31.58,0000 0000 0000 0000 000000
2014-11-17 11:21:31,0.12,3.50,0.00,20.54,24.85,27.78,4.85,26.57,1024.94,2040.98,2242.69,2482.16,2652.36,350.14,353.50,31.61,0000 0000 0000 0000 000000
2014-11-17 11:26:32,0.03,3.50,0.00,20.54,24.85,27.80,4.94,26.52,1024.93,2040.97,2241.91,2481.92,2651.98,350.19,353.63,31.64,0000 0000 0000 0000 000000
2014-11-17 11:31:33,0.14,3.50,0.00,20.55,24.85,27.79,4.85,26.53,1024.93,2040.98,2240.99,2481.13,2651.22,349.90,353.28,31.67,0000 0000 0000 0000 000000
2014-11-17 11:36:34,0.08,3.50,0.00,20.58,24.86,27.76,4.89,26.66,1024.92,2040.98,2240.09,2480.80,2650.82,350.31,353.68,31.70,0000 0000 0000 0000 000000
2014-11-17 11:41:35,0.11,3.51,0.00,20.57,24.87,27.78,4.78,26.63,1024.92,2040.97,2239.29,2480.04,2650.04,349.65,353.14,31.73,0000 0000 0000 0000 000000
2014-11-17 11:46:37,0.03,3.51,0.00,20.57,24.87,27.76,4.90,26.46,1024.92,2040.98,2238.89,2479.91,2649.64,350.56,353.98,31.76,0000 0000 0000 0000 000000
2014-11-17 11:51:38,0.10,3.51,0.00,20.58,24.87,27.77,4.83,26.58,1024.87,2040.95,2238.38,2479.20,2649.01,349.82,353.32,31.79,0000 0000 0000 0000 000000
2014-11-17 11:56:39,0.10,3.51,0.00,20.58,24.88,27.78,4.85,26.59,1024.59,2040.96,2237.40,2478.96,2648.53,350.17,353.57,31.82,0000 0000 0000 0000 000000
2014-11-17 12:01:40,0.10,3.52,0.00,20.56,24.89,27.81,4.81,26.46,1024.47,2040.96,2236.64,2478.18,2648.00,349.63,352.80,31.85,0000 0000 0000 0000 000000
2014-11-17 12:06:41,0.05,3.52,0.00,20.58,24.90,27.78,4.86,26.52,1024.46,2040.98,2236.02,2477.99,2647.46,349.67,352.77,31.87,0000 0000 0000 0000 000000
2014-11-17 12:11:43,0.07,3.52,0.00,20.60,24.90,27.79,4.90,26.48,1024.45,2040.87,2235.73,2477.46,2646.83,350.11,353.39,31.90,0000 0000 0000 0000 000000
2014-11-17 12:16:44,0.02,3.52,0.00,20.60,24.90,27.80,4.90,26.57,1024.43,2040.59,2234.62,2476.93,2646.09,350.79,354.13,31.93,0000 0000 0000 0000 000000
2014-11-17 12:21:45,0.16,3.53,0.00,20.57,24.91,27.83,4.83,26.56,1024.43,2040.57,2233.56,2476.19,2645.75,349.43,353.06,31.96,0000 0000 0000 0000 000000
2014-11-17 12:26:47,0.02,3.53,0.00,20.58,24.92,27.86,4.79,26.49,1024.43,2040.43,2232.83,2475.96,2645.03,349.47,352.58,31.99,0000 0000 0000 0000 000000
2014-11-17 12:31:48,0.15,3.53,0.00,20.61,24.92,27.88,4.87,26.55,1024.43,2040.64,2232.05,2475.26,2644.63,350.14,353.37,32.02,0000 0000 0000 0000 000000
2014-11-17 12:36:49,0.02,3.53,0.00,20.60,24.92,27.84,4.89,26.64,1024.43,2040.52,2231.70,2474.97,2644.00,350.20,353.62,32.05,0000 0000 0000 0000 000000
2014-11-17 12:41:50,0.05,3.53,0.00,20.60,24.92,27.86,4.86,26.63,1024.43,2040.08,2230.93,2474.30,2643.30,350.30,353.41,32.08,0000 0000 0000 0000 000000
2014-11-17 12:46:51,0.05,3.54,0.00,20.60,24.92,27.85,4.82,26.56,1024.43,2040.07,2230.21,2474.00,2642.96,349.94,353.46,32.11,0000 0000 0000 0000 000000
2014-11-17 12:51:53,0.14,3.54,0.00,20.59,24.93,27.82,4.86,26.60,1024.43,2040.08,2229.38,2473.47,2642.14,349.90,353.12,32.14,0000 0000 0000 0000 000000
2014-11-17 12:56:54,0.02,3.54,0.00,20.59,24.94,27.86,4.85,26.51,1024.43,2040.07,2228.83,2473.00,2641.92,349.71,352.76,32.17,0000 0000 0000 0000 000000
2014-11-17 13:01:55,0.11,3.54,0.00,20.59,24.95,27.88,4.82,26.57,1024.41,2040.04,2228.00,2472.63,2641.12,349.30,352.64,32.20,0000 0000 0000 0000 000000